This is the latest recevied weather packets stored in our database for station/object KC2GYU. If no packets are shown the sender has not sent any weather packets the latest 10 day(s).
| Time | Temp. | Humidity | Pressure | Rain* | Wind** | Luminosity | Snow |
|---|---|---|---|---|---|---|---|
| 1778106254 | 19.44° C | 88% | 1009.2 hPa | 0 mm | - | 80 W/m² | - |
| 1778105951 | 19.44° C | 88% | 1009.2 hPa | 0 mm | - | 79 W/m² | - |
| 1778105648 | 19.44° C | 88% | 1009.2 hPa | 0 mm | - | 58 W/m² | - |
| 1778105346 | 19.44° C | 88% | 1009 hPa | 0 mm | - | 49 W/m² | - |
| 1778105041 | 19.44° C | 88% | 1009 hPa | 0 mm | - | 69 W/m² | - |
| 1778104738 | 19.44° C | 88% | 1009.1 hPa | 0 mm | - | 74 W/m² | - |
| 1778104434 | 19.44° C | 88% | 1009.1 hPa | 0 mm | - | 62 W/m² | - |
| 1778104130 | 19.44° C | 88% | 1009.3 hPa | 0 mm | - | 60 W/m² | - |
| 1778103827 | 19.44° C | 87% | 1009.2 hPa | 0 mm | - | 55 W/m² | - |
| 1778103525 | 19.44° C | 87% | 1009.1 hPa | 0 mm | - | 73 W/m² | - |
| 1778103222 | 19.44° C | 87% | 1008.9 hPa | 0 mm | - | 105 W/m² | - |
| 1778102919 | 19.44° C | 88% | 1009.1 hPa | 0 mm | - | 126 W/m² | - |
| 1778102615 | 19.44° C | 87% | 1008.6 hPa | 0 mm | - | 122 W/m² | - |
| 1778102310 | 19.44° C | 87% | 1008.8 hPa | 0 mm | - | 119 W/m² | - |
| 1778102006 | 19.44° C | 87% | 1008.5 hPa | 0 mm | - | 99 W/m² | - |
| 1778101704 | 20° C | 86% | 1008.5 hPa | 0 mm | - | 143 W/m² | - |
| 1778101401 | 20° C | 85% | 1008.7 hPa | 0 mm | - | 198 W/m² | - |
| 1778101098 | 20° C | 85% | 1008.4 hPa | 0 mm | - | 371 W/m² | - |
| 1778100794 | 20° C | 85% | 1008.7 hPa | 0 mm | - | 300 W/m² | - |
| 1778100490 | 20° C | 86% | 1008.6 hPa | 0 mm | - | 189 W/m² | - |
| 1778100188 | 20° C | 85% | 1008.4 hPa | 0 mm | - | 212 W/m² | - |
| 1778099886 | 19.44° C | 86% | 1008.4 hPa | 0 mm | - | 257 W/m² | - |
| 1778099583 | 19.44° C | 86% | 1008.5 hPa | 0 mm | - | 201 W/m² | - |
| 1778099280 | 20° C | 86% | 1008.3 hPa | 0 mm | - | 170 W/m² | - |
| 1778098977 | 20° C | 86% | 1008.6 hPa | 0 mm | - | 182 W/m² | - |
* Rain latest hour (hover to see other rain measurements)
** Current wind speed in m/s (hover to see current wind gust speed)